EW5393 Weather Reports


Display with metric or nautical units.
time (UTC)temp
F
wind
direction
speed
MPH
gust
MPH
rain 1hr
in
rain 24hr
in
rain mn
in
humidity
%
barometer
mb
20260508084305 48 104 2.0 5.0 0.00 0.00 0.00 55 1013.1
20260508083803 48 107 1.0 3.0 0.00 0.00 0.00 55 1012.9
20260508082804 48 95 1.0 2.0 0.00 0.00 0.00 54 1013.0
20260508082306 48 39 1.0 2.0 0.00 0.00 0.00 52 1013.0
20260508081804 49 63 1.0 2.0 0.00 0.00 0.00 53 1012.9
20260508081304 49 6 1.0 1.0 0.00 0.00 0.00 53 1013.1
20260508080803 49 4 1.0 2.0 0.00 0.00 0.00 53 1013.0
20260508080304 49 28 0.0 2.0 0.00 0.00 0.00 51 1013.0
20260508075308 49 44 1.0 2.0 0.00 0.00 0.00 51 1013.0
20260508074804 49 47 1.0 3.0 0.00 0.00 0.00 50 1013.2
20260508074304 49 18 1.0 2.0 0.00 0.00 0.00 50 1013.2
20260508073804 50 86 1.0 2.0 0.00 0.00 0.00 49 1013.1
20260508073303 50 63 1.0 3.0 0.00 0.00 0.00 49 1013.2
20260508072804 50 52 1.0 1.0 0.00 0.00 0.00 49 1013.2
20260508072307 50 100 1.0 2.0 0.00 0.00 0.00 49 1013.2
20260508071804 50 93 2.0 3.0 0.00 0.00 0.00 49 1013.2
20260508071304 50 96 1.0 2.0 0.00 0.00 0.00 49 1013.2
20260508070804 50 103 1.0 3.0 0.00 0.00 0.00 49 1013.2
20260508070304 50 103 2.0 5.0 0.00 0.00 0.00 49 1013.2
20260508064804 51 116 1.0 2.0 0.00 0.00 0.00 48 1013.3
20260508064304 52 129 1.0 2.0 0.00 0.00 0.00 49 1013.2
20260508063304 51 15 0.0 2.0 0.00 0.00 0.00 48 1013.1
20260508062306 51 37 1.0 2.0 0.00 0.00 0.00 49 1013.1
20260508061804 51 45 0.0 2.0 0.00 0.00 0.00 48 1013.1
20260508061304 51 25 0.0 2.0 0.00 0.00 0.00 48 1013.3
20260508060804 51 14 1.0 2.0 0.00 0.00 0.00 48 1013.3
20260508055804 51 15 0.0 1.0 0.00 0.00 0.00 47 1013.2
20260508055306 52 12 0.0 0.0 0.00 0.00 0.00 46 1013.2
20260508054804 52 50 0.0 0.0 0.00 0.00 0.00 46 1013.3
20260508054304 52 334 0.0 1.0 0.00 0.00 0.00 46 1013.4
20260508053804 52 297 1.0 1.0 0.00 0.00 0.00 45 1013.3
20260508053304 52 12 0.0 1.0 0.00 0.00 0.00 45 1013.1
20260508052804 52 324 0.0 1.0 0.00 0.00 0.00 45 1013.2
20260508052306 52 335 0.0 1.0 0.00 0.00 0.00 45 1013.4
20260508051804 52 339 1.0 2.0 0.00 0.00 0.00 45 1013.3
20260508050804 53 342 0.0 1.0 0.00 0.00 0.00 43 1013.3
20260508050304 53 349 0.0 0.0 0.00 0.00 0.00 43 1013.4
20260508044804 54 37 0.0 3.0 0.00 0.00 0.00 41 1013.3
20260508044304 54 117 1.0 2.0 0.00 0.00 0.00 42 1013.5
20260508043804 54 48 0.0 0.0 0.00 0.00 0.00 41 1013.6
20260508043304 54 13 0.0 0.0 0.00 0.00 0.00 40 1013.3
20260508042804 55 17 0.0 1.0 0.00 0.00 0.00 39 1013.2
20260508042307 55 348 0.0 1.0 0.00 0.00 0.00 40 1013.4
20260508041303 55 298 0.0 1.0 0.00 0.00 0.00 39 1013.3
20260508040803 56 30 0.0 1.0 0.00 0.00 0.00 39 1013.1
20260508040304 56 297 1.0 2.0 0.00 0.00 0.00 39 1013.2
20260508035804 56 318 0.0 1.0 0.00 0.00 0.00 38 1013.2
20260508035306 56 322 1.0 1.0 0.00 0.00 0.00 38 1013.2
20260508034804 57 341 0.0 1.0 0.00 0.00 0.00 38 1013.2
20260508034304 57 18 0.0 0.0 0.00 0.00 0.00 37 1013.4
20260508033804 57 18 0.0 1.0 0.00 0.00 0.00 37 1013.2
20260508033304 58 33 0.0 0.0 0.00 0.00 0.00 36 1013.2
20260508032804 58 102 0.0 0.0 0.00 0.00 0.00 35 1013.4
20260508032306 59 106 0.0 1.0 0.00 0.00 0.00 35 1013.1
20260508031804 59 152 0.0 0.0 0.00 0.00 0.00 34 1013.1
20260508031304 60 152 0.0 0.0 0.00 0.00 0.00 33 1013.1
20260508030804 61 152 0.0 1.0 0.00 0.00 0.00 32 1013.1
20260508024804 62 233 0.0 5.0 0.00 0.00 0.00 30 1012.9
20260508024304 62 120 2.0 5.0 0.00 0.00 0.00 30 1013.0
20260508023804 62 86 2.0 5.0 0.00 0.00 0.00 31 1013.0
20260508023304 63 342 1.0 3.0 0.00 0.00 0.00 31 1013.0
20260508022804 63 310 1.0 3.0 0.00 0.00 0.00 30 1012.9
20260508022306 63 238 2.0 8.0 0.00 0.00 0.00 29 1012.9
20260508021804 63 289 2.0 5.0 0.00 0.00 0.00 30 1012.9
20260508020804 63 340 3.0 7.0 0.00 0.00 0.00 30 1012.8
20260508020304 64 299 4.0 10.0 0.00 0.00 0.00 29 1012.9
20260508015804 64 251 2.0 3.0 0.00 0.00 0.00 29 1012.8
20260508015306 64 185 1.0 3.0 0.00 0.00 0.00 29 1012.6
20260508014804 64 116 1.0 3.0 0.00 0.00 0.00 29 1012.6
20260508014304 64 181 1.0 3.0 0.00 0.00 0.00 29 1012.6
20260508013304 64 112 1.0 3.0 0.00 0.00 0.00 29 1012.6
20260508012804 64 102 2.0 3.0 0.00 0.00 0.00 29 1012.6
20260508012307 64 137 1.0 5.0 0.00 0.00 0.00 28 1012.6
20260508011804 65 60 1.0 3.0 0.00 0.00 0.00 28 1012.4
20260508011304 65 118 1.0 2.0 0.00 0.00 0.00 28 1012.6
20260508010304 65 106 2.0 5.0 0.00 0.00 0.00 28 1012.5
20260508005803 65 93 2.0 6.0 0.00 0.00 0.00 28 1012.5
20260508004804 66 69 1.0 2.0 0.00 0.00 0.00 27 1012.5
20260508004304 66 120 1.0 9.0 0.00 0.00 0.00 27 1012.5
20260508003804 66 107 3.0 9.0 0.00 0.00 0.00 27 1012.5
20260508003303 66 105 2.0 5.0 0.00 0.00 0.00 27 1012.5
20260508002307 67 111 1.0 3.0 0.00 0.00 0.00 26 1012.5
20260508001804 67 73 2.0 7.0 0.00 0.00 0.00 27 1012.5
20260508000803 67 69 2.0 7.0 0.00 0.00 0.00 26 1012.4
20260508000305 67 106 2.0 3.0 0.00 0.00 0.00 26 1012.3
20260507235804 67 52 2.0 5.0 0.00 0.00 0.00 26 1012.4
20260507235306 67 114 1.0 12.0 0.00 0.00 0.00 26 1012.3
20260507234804 68 110 4.0 12.0 0.00 0.00 0.00 27 1012.3
20260507234304 68 91 2.0 6.0 0.00 0.00 0.00 26 1012.3
20260507233304 68 64 2.0 7.0 0.00 0.00 0.00 26 1012.2
20260507232804 68 97 3.0 8.0 0.00 0.00 0.00 26 1012.2
20260507232306 67 107 3.0 8.0 0.00 0.00 0.00 26 1012.3
20260507231803 67 2 1.0 6.0 0.00 0.00 0.00 27 1012.4
20260507231304 68 102 4.0 7.0 0.00 0.00 0.00 26 1012.2
20260507230804 68 53 2.0 6.0 0.00 0.00 0.00 27 1012.4
20260507230304 68 28 3.0 6.0 0.00 0.00 0.00 27 1012.3
20260507225804 68 57 4.0 7.0 0.00 0.00 0.00 26 1012.4
20260507225306 68 18 3.0 12.0 0.00 0.00 0.00 26 1012.4
20260507224804 68 104 3.0 5.0 0.00 0.00 0.00 26 1012.5
20260507224304 68 102 2.0 8.0 0.00 0.00 0.00 25 1012.4
20260507223803 68 45 2.0 9.0 0.00 0.00 0.00 26 1012.4
20260507223303 68 127 5.0 9.0 0.00 0.00 0.00 25 1012.4
20260507222803 68 124 3.0 10.0 0.00 0.00 0.00 25 1012.5
20260507221804 67 97 3.0 14.0 0.00 0.00 0.00 25 1012.4
20260507221303 67 119 3.0 7.0 0.00 0.00 0.00 26 1012.5
20260507220803 67 102 2.0 7.0 0.00 0.00 0.00 26 1012.4
20260507220304 67 86 2.0 6.0 0.00 0.00 0.00 27 1012.6
20260507215804 67 102 6.0 9.0 0.00 0.00 0.00 26 1012.4
20260507214804 67 111 3.0 9.0 0.00 0.00 0.00 26 1012.5
20260507214304 67 181 1.0 6.0 0.00 0.00 0.00 25 1012.5
20260507213304 67 98 1.0 7.0 0.00 0.00 0.00 25 1012.6
20260507212804 67 111 3.0 9.0 0.00 0.00 0.00 25 1012.8
20260507212306 68 124 3.0 10.0 0.00 0.00 0.00 25 1012.9
20260507211804 68 107 4.0 10.0 0.00 0.00 0.00 26 1013.0
20260507211304 68 102 3.0 8.0 0.00 0.00 0.00 26 1013.0
20260507210804 67 106 2.0 6.0 0.00 0.00 0.00 25 1012.9
20260507210304 68 132 3.0 6.0 0.00 0.00 0.00 25 1012.9
20260507205804 67 92 3.0 8.0 0.00 0.00 0.00 27 1012.9
20260507205306 67 170 1.0 3.0 0.00 0.00 0.00 28 1013.2
20260507204804 67 105 1.0 7.0 0.00 0.00 0.00 26 1013.0
20260507203804 66 56 2.0 6.0 0.00 0.00 0.00 27 1013.2
20260507202306 66 102 3.0 8.0 0.00 0.00 0.00 27 1013.2
20260507201804 67 126 6.0 14.0 0.00 0.00 0.00 27 1013.1
20260507201303 67 117 4.0 12.0 0.00 0.00 0.00 27 1013.2
20260507200804 67 86 6.0 13.0 0.00 0.00 0.00 27 1013.0
20260507200303 68 113 6.0 13.0 0.00 0.00 0.00 26 1013.2
20260507195305 69 22 3.0 9.0 0.00 0.00 0.00 26 1013.2
20260507194304 69 57 1.0 6.0 0.00 0.00 0.00 28 1013.2
20260507193804 69 120 3.0 16.0 0.00 0.00 0.00 27 1013.3
20260507192804 70 103 4.0 8.0 0.00 0.00 0.00 25 1013.3
20260507192306 70 51 3.0 8.0 0.00 0.00 0.00 27 1013.2
20260507191803 70 78 7.0 17.0 0.00 0.00 0.00 25 1013.2
20260507191304 70 18 2.0 8.0 0.00 0.00 0.00 28 1013.3
20260507190805 70 18 3.0 8.0 0.00 0.00 0.00 29 1013.4
20260507190304 69 86 5.0 9.0 0.00 0.00 0.00 27 1013.5
20260507185804 69 119 6.0 14.0 0.00 0.00 0.00 27 1013.5
20260507185305 68 29 2.0 14.0 0.00 0.00 0.00 28 1013.7
20260507184804 69 98 5.0 14.0 0.00 0.00 0.00 28 1013.5
20260507184304 68 102 4.0 9.0 0.00 0.00 0.00 27 1013.6
20260507183304 68 95 4.0 14.0 0.00 0.00 0.00 27 1013.7
20260507182804 68 95 3.0 10.0 0.00 0.00 0.00 27 1013.5
20260507182306 68 101 3.0 10.0 0.00 0.00 0.00 27 1013.5
20260507181304 69 104 4.0 8.0 0.00 0.00 0.00 28 1013.4
20260507180804 68 87 3.0 12.0 0.00 0.00 0.00 31 1013.4
20260507180304 68 109 5.0 12.0 0.00 0.00 0.00 28 1013.5
20260507175803 68 150 3.0 10.0 0.00 0.00 0.00 29 1013.5
20260507175307 68 110 5.0 12.0 0.00 0.00 0.00 28 1013.4
20260507174804 68 96 5.0 13.0 0.00 0.00 0.00 28 1013.3
20260507173804 68 122 3.0 9.0 0.00 0.00 0.00 29 1013.6
20260507172804 67 122 3.0 12.0 0.00 0.00 0.00 29 1013.6
20260507172307 68 110 6.0 12.0 0.00 0.00 0.00 28 1013.8
20260507171804 69 339 3.0 10.0 0.00 0.00 0.00 28 1013.7
20260507171304 69 103 3.0 7.0 0.00 0.00 0.00 29 1013.7
20260507170804 69 99 3.0 9.0 0.00 0.00 0.00 30 1013.9
20260507170304 68 119 6.0 12.0 0.00 0.00 0.00 30 1014.0
20260507165804 68 103 5.0 15.0 0.00 0.00 0.00 29 1013.7
20260507164803 69 107 3.0 12.0 0.00 0.00 0.00 29 1013.8
20260507164304 69 103 5.0 9.0 0.00 0.00 0.00 28 1013.9
20260507163803 69 124 6.0 12.0 0.00 0.00 0.00 29 1013.9
20260507163304 68 104 5.0 14.0 0.00 0.00 0.00 29 1013.8
20260507162804 68 76 3.0 9.0 0.00 0.00 0.00 32 1013.8
20260507162307 67 63 2.0 9.0 0.00 0.00 0.00 31 1013.9
20260507161804 66 40 5.0 13.0 0.00 0.00 0.00 32 1014.0
20260507161303 65 111 6.0 12.0 0.00 0.00 0.00 33 1013.9
20260507160804 64 83 5.0 12.0 0.00 0.00 0.00 34 1014.0
20260507160304 62 115 5.0 10.0 0.00 0.00 0.00 34 1014.1
20260507155804 62 88 5.0 12.0 0.00 0.00 0.00 34 1014.0
20260507154803 65 66 6.0 15.0 0.00 0.00 0.00 32 1014.2
20260507154304 66 57 4.0 10.0 0.00 0.00 0.00 33 1014.1
20260507153804 65 85 3.0 12.0 0.00 0.00 0.00 33 1014.3
20260507153304 65 110 6.0 13.0 0.00 0.00 0.00 32 1014.2
20260507152804 65 107 7.0 13.0 0.00 0.00 0.00 32 1014.2
20260507152306 64 119 6.0 15.0 0.00 0.00 0.00 33 1014.2
20260507151804 63 73 3.0 9.0 0.00 0.00 0.00 34 1014.2
20260507151304 64 47 6.0 18.0 0.00 0.00 0.00 33 1014.2
20260507150804 64 54 6.0 12.0 0.00 0.00 0.00 34 1014.4
20260507150304 63 11 3.0 8.0 0.00 0.00 0.00 36 1014.5
20260507145306 60 41 3.0 7.0 0.00 0.00 0.00 41 1014.2
20260507144803 59 149 3.0 8.0 0.00 0.00 0.00 41 1014.4
20260507144304 60 33 3.0 7.0 0.00 0.00 0.00 41 1014.4
20260507143304 60 114 5.0 12.0 0.00 0.00 0.00 41 1014.1
20260507142804 60 41 3.0 9.0 0.00 0.00 0.00 42 1014.1
20260507142306 59 86 3.0 7.0 0.00 0.00 0.00 42 1014.1
20260507141804 58 101 3.0 7.0 0.00 0.00 0.00 44 1014.2
20260507141304 58 92 3.0 7.0 0.00 0.00 0.00 44 1014.1
20260507140804 57 85 2.0 6.0 0.00 0.00 0.00 45 1014.0
20260507140303 56 96 2.0 6.0 0.00 0.00 0.00 47 1014.1
20260507135306 56 100 2.0 5.0 0.00 0.00 0.00 47 1013.8
20260507134803 55 347 2.0 7.0 0.00 0.00 0.00 49 1013.8
20260507134303 54 6 2.0 6.0 0.00 0.00 0.00 50 1013.8
20260507132307 51 85 1.0 5.0 0.00 0.00 0.00 52 1013.6
20260507131804 51 45 2.0 3.0 0.00 0.00 0.00 53 1013.6
20260507131304 51 60 1.0 5.0 0.00 0.00 0.00 53 1013.4
20260507130804 51 3 1.0 3.0 0.00 0.00 0.00 53 1013.4
20260507130303 51 47 1.0 3.0 0.00 0.00 0.00 53 1013.5
20260507125804 51 5 1.0 3.0 0.00 0.00 0.00 53 1013.5
20260507124804 51 18 1.0 3.0 0.00 0.00 0.00 53 1013.3
20260507124304 51 75 1.0 5.0 0.00 0.00 0.00 54 1013.6
20260507123804 51 97 2.0 5.0 0.00 0.00 0.00 53 1013.4
20260507123304 51 77 2.0 6.0 0.00 0.00 0.00 54 1013.3
20260507122804 51 69 2.0 8.0 0.00 0.00 0.00 54 1013.6
20260507122307 51 38 2.0 7.0 0.00 0.00 0.00 54 1013.3
20260507121804 51 42 1.0 5.0 0.00 0.00 0.00 54 1013.4
20260507121304 50 64 2.0 5.0 0.00 0.00 0.00 54 1013.2
20260507120804 50 91 2.0 5.0 0.00 0.00 0.00 54 1013.3
20260507120304 50 10 2.0 5.0 0.00 0.00 0.00 54 1013.2
20260507115307 50 0 2.0 7.0 0.00 0.00 0.00 54 1013.1
20260507114804 49 47 2.0 3.0 0.00 0.00 0.00 54 1013.0
20260507114304 50 47 1.0 3.0 0.00 0.00 0.00 53 1012.9
20260507113804 50 19 1.0 3.0 0.00 0.00 0.00 53 1013.1
20260507113304 50 23 1.0 3.0 0.00 0.00 0.00 53 1012.8
20260507112804 50 44 1.0 2.0 0.00 0.00 0.00 54 1012.7
20260507111804 51 15 1.0 3.0 0.00 0.00 0.00 55 1012.8
20260507111304 51 57 1.0 3.0 0.00 0.00 0.00 55 1012.7
20260507110804 51 32 1.0 2.0 0.00 0.00 0.00 56 1012.7
20260507110303 51 29 1.0 2.0 0.00 0.00 0.00 55 1012.8
20260507105803 51 15 2.0 3.0 0.00 0.00 0.00 55 1012.7
20260507105306 51 28 1.0 2.0 0.00 0.00 0.00 56 1012.7
20260507104803 51 355 1.0 2.0 0.00 0.00 0.00 56 1012.8
20260507104304 51 43 1.0 5.0 0.00 0.00 0.00 56 1012.7
20260507103304 51 39 1.0 2.0 0.00 0.00 0.00 56 1012.6
20260507102804 51 37 1.0 2.0 0.00 0.00 0.00 55 1012.5
20260507102306 51 20 1.0 5.0 0.00 0.00 0.00 56 1012.5
20260507101804 52 12 2.0 3.0 0.00 0.00 0.00 57 1012.7
20260507101304 52 84 2.0 5.0 0.00 0.00 0.00 57 1012.7
20260507100804 52 23 1.0 3.0 0.00 0.00 0.00 58 1012.6
20260507100304 52 28 2.0 3.0 0.00 0.00 0.00 59 1012.8
20260507095804 52 357 1.0 3.0 0.00 0.00 0.00 60 1012.6
20260507095306 52 55 1.0 5.0 0.00 0.00 0.00 62 1012.8
20260507094804 52 346 1.0 5.0 0.00 0.00 0.00 62 1012.7
20260507094304 52 341 1.0 5.0 0.00 0.00 0.00 62 1012.8
20260507093804 52 340 2.0 6.0 0.00 0.00 0.00 63 1012.6
20260507093304 51 31 2.0 7.0 0.00 0.00 0.00 64 1012.7
20260507092804 51 338 3.0 8.0 0.00 0.00 0.00 63 1012.5
20260507092306 51 10 1.0 2.0 0.00 0.00 0.00 62 1012.5
20260507091803 51 3 2.0 8.0 0.00 0.00 0.00 63 1012.6
20260507085804 51 56 0.0 1.0 0.00 0.00 0.00 62 1012.6